Location: City of Moscow
(46.7306°N, 116.9989°W)
Time: 02:25:42
(UTC+00:00)

USA 234 - Pass Details

Date: 16 March 2026
Orbit: 1102 x 1106 km, 123.0° (Epoch: 4 January)

Event Time Altitude Azimuth Distance (km) Brightness Sun altitude
Exits shadow 03:01:30 10° 69° (ENE) 2,967 5.0 -12.3°
Reaches altitude 10° 03:01:30 10° 69° (ENE) 2,966 5.0 -12.3°
Maximum altitude 03:07:22 37° 5° (N) 1,656 4.3 -13.3°
Drops below altitude 10° 03:13:14 10° 302° (WNW) 2,970 6.7 -14.3°
Sets 03:15:54 0° 294° (WNW) 3,929 7.9 -14.7°
